Stündliche Wetter 8 Marta

Heute, 22 Juni, Dienstag

Zeit Temperatur Niederschläge Wind Luftdruck Luftfeuchtigkeit
00:00 +21°C° 0 mm 2 m/S 746 mmHg 89%
01:00 +20°C° 0 mm 2 m/S 746 mmHg 89%
02:00 +20°C° 0 mm 2 m/S 746 mmHg 89%
03:00 +20°C° 0 mm 2 m/S 746 mmHg 89%
04:00 +20°C° 0 mm 2 m/S 746 mmHg 88%
05:00 +21°C° 0 mm 2 m/S 746 mmHg 88%
06:00 +21°C° 0 mm 2 m/S 746 mmHg 87%
07:00 +24°C° 0 mm 2 m/S 746 mmHg 81%
08:00 +25°C° 0 mm 2 m/S 747 mmHg 76%
09:00 +27°C° 0 mm 3 m/S 747 mmHg 71%
10:00 +28°C° 0 mm 3 m/S 747 mmHg 66%
11:00 +29°C° 0 mm 3 m/S 747 mmHg 62%
12:00 +30°C° 0 mm 3 m/S 747 mmHg 57%
13:00 +30°C° 0 mm 3 m/S 747 mmHg 55%
14:00 +31°C° 0 mm 3 m/S 747 mmHg 53%
15:00 +31°C° 0 mm 2 m/S 747 mmHg 51%
16:00 +31°C° 0 mm 2 m/S 746 mmHg 55%
17:00 +31°C° 0 mm 2 m/S 746 mmHg 60%
18:00 +30°C° 0 mm 2 m/S 746 mmHg 64%
19:00 +28°C° 0 mm 2 m/S 746 mmHg 69%
20:00 +27°C° 0 mm 2 m/S 746 mmHg 74%
21:00 +25°C° 0 mm 2 m/S 746 mmHg 79%
22:00 +24°C° 0 mm 2 m/S 746 mmHg 79%
23:00 +23°C° 0 mm 2 m/S 746 mmHg 79%

Morgen, 23 Juni, Mittwoch

Zeit Temperatur Niederschläge Wind Luftdruck Luftfeuchtigkeit
00:00 +21°C° 0 mm 2 m/S 746 mmHg 79%
01:00 +21°C° 0 mm 2 m/S 746 mmHg 80%
02:00 +21°C° 0 mm 2 m/S 746 mmHg 80%
03:00 +20°C° 0 mm 2 m/S 746 mmHg 80%
04:00 +21°C° 0 mm 2 m/S 746 mmHg 80%
05:00 +21°C° 0 mm 2 m/S 746 mmHg 80%
06:00 +23°C° 0 mm 2 m/S 746 mmHg 80%
07:00 +25°C° 0 mm 2 m/S 747 mmHg 75%
08:00 +26°C° 0 mm 2 m/S 747 mmHg 71%
09:00 +28°C° 0 mm 3 m/S 747 mmHg 66%
10:00 +28°C° 0 mm 3 m/S 747 mmHg 63%
11:00 +29°C° 0 mm 3 m/S 747 mmHg 60%
12:00 +30°C° 0 mm 3 m/S 747 mmHg 57%
13:00 +31°C° 0 mm 3 m/S 747 mmHg 56%
14:00 +31°C° 0 mm 3 m/S 747 mmHg 54%
15:00 +31°C° 0 mm 3 m/S 747 mmHg 52%
16:00 +31°C° 0 mm 3 m/S 746 mmHg 56%
17:00 +31°C° 0 mm 2 m/S 746 mmHg 60%
18:00 +30°C° 0 mm 2 m/S 746 mmHg 65%
19:00 +29°C° 0 mm 2 m/S 746 mmHg 68%
20:00 +27°C° 0 mm 2 m/S 746 mmHg 72%
21:00 +25°C° 0 mm 1 m/S 746 mmHg 76%
22:00 +25°C° 0 mm 1 m/S 746 mmHg 77%
23:00 +24°C° 0 mm 1 m/S 746 mmHg 78%

übermorgen, 24 Juni, Donnerstag

Zeit Temperatur Niederschläge Wind Luftdruck Luftfeuchtigkeit
00:00 +23°C° 0 mm 1 m/S 746 mmHg 79%
01:00 +23°C° 0 mm 1 m/S 746 mmHg 80%
02:00 +23°C° 0 mm 1 m/S 746 mmHg 82%
03:00 +22°C° 0 mm 1 m/S 746 mmHg 83%
04:00 +23°C° 0 mm 1 m/S 746 mmHg 82%
05:00 +23°C° 0 mm 1 m/S 746 mmHg 82%
06:00 +24°C° 0 mm 1 m/S 746 mmHg 81%
07:00 +25°C° 0 mm 1 m/S 746 mmHg 76%
08:00 +27°C° 0 mm 1 m/S 746 mmHg 71%
09:00 +28°C° 0 mm 1 m/S 746 mmHg 66%
10:00 +29°C° 0 mm 1 m/S 746 mmHg 63%
11:00 +30°C° 0 mm 1 m/S 746 mmHg 60%
12:00 +31°C° 0 mm 1 m/S 746 mmHg 57%
13:00 +31°C° 0 mm 1 m/S 746 mmHg 55%
14:00 +32°C° 0 mm 1 m/S 746 mmHg 53%
15:00 +32°C° 0 mm 1 m/S 746 mmHg 51%
16:00 +32°C° 0 mm 1 m/S 745 mmHg 54%
17:00 +32°C° 0 mm 1 m/S 745 mmHg 57%
18:00 +32°C° 0 mm 1 m/S 744 mmHg 60%
19:00 +30°C° 0.1 mm 1 m/S 744 mmHg 65%
20:00 +28°C° 0.1 mm 1 m/S 744 mmHg 69%
21:00 +26°C° 0.1 mm 1 m/S 744 mmHg 73%
22:00 +24°C° 1 mm 1 m/S 744 mmHg 79%
23:00 +21°C° 1 mm 2 m/S 745 mmHg 84%

25 Juni, Freitag

Zeit Temperatur Niederschläge Wind Luftdruck Luftfeuchtigkeit
00:00 +19°C° 1 mm 3 m/S 745 mmHg 89%
01:00 +19°C° 0 mm 3 m/S 745 mmHg 87%
02:00 +20°C° 0 mm 2 m/S 744 mmHg 84%
03:00 +20°C° 0 mm 2 m/S 744 mmHg 82%
04:00 +22°C° 0 mm 1 m/S 744 mmHg 81%
05:00 +23°C° 0 mm 1 m/S 744 mmHg 81%
06:00 +23°C° 0 mm 1 m/S 744 mmHg 80%
07:00 +25°C° 0 mm 1 m/S 744 mmHg 76%
08:00 +26°C° 0 mm 1 m/S 744 mmHg 72%
09:00 +27°C° 0 mm 1 m/S 744 mmHg 68%
10:00 +28°C° 0.1 mm 1 m/S 744 mmHg 65%
11:00 +29°C° 0.1 mm 1 m/S 744 mmHg 62%
12:00 +30°C° 0.1 mm 1 m/S 744 mmHg 59%
13:00 +31°C° 0 mm 1 m/S 744 mmHg 58%
14:00 +31°C° 0 mm 1 m/S 744 mmHg 56%
15:00 +31°C° 0 mm 1 m/S 743 mmHg 55%
16:00 +31°C° 0.1 mm 2 m/S 743 mmHg 59%
17:00 +30°C° 0.1 mm 2 m/S 742 mmHg 64%
18:00 +30°C° 0.1 mm 2 m/S 742 mmHg 68%
19:00 +28°C° 0.1 mm 2 m/S 742 mmHg 72%
20:00 +27°C° 0.1 mm 2 m/S 742 mmHg 76%
21:00 +25°C° 0.1 mm 2 m/S 742 mmHg 79%
22:00 +24°C° 0 mm 1 m/S 742 mmHg 82%
23:00 +24°C° 0 mm 1 m/S 742 mmHg 84%

26 Juni, Samstag

Zeit Temperatur Niederschläge Wind Luftdruck Luftfeuchtigkeit
00:00 +23°C° 0 mm 1 m/S 742 mmHg 86%
01:00 +23°C° 0 mm 1 m/S 741 mmHg 87%
02:00 +21°C° 0 mm 2 m/S 741 mmHg 88%
03:00 +21°C° 0 mm 2 m/S 741 mmHg 89%
04:00 +22°C° 0.1 mm 1 m/S 741 mmHg 88%
05:00 +23°C° 0.1 mm 1 m/S 741 mmHg 87%
06:00 +23°C° 0.1 mm 1 m/S 741 mmHg 86%
07:00 +25°C° 0 mm 1 m/S 741 mmHg 82%
08:00 +26°C° 0 mm 1 m/S 741 mmHg 77%
09:00 +28°C° 0 mm 2 m/S 741 mmHg 73%
10:00 +29°C° 0 mm 2 m/S 741 mmHg 68%
11:00 +30°C° 0 mm 2 m/S 741 mmHg 63%
12:00 +31°C° 0 mm 2 m/S 741 mmHg 59%
13:00 +31°C° 0 mm 2 m/S 741 mmHg 57%
14:00 +31°C° 0 mm 3 m/S 741 mmHg 55%
15:00 +33°C° 0 mm 3 m/S 741 mmHg 54%
16:00 +31°C° 0 mm 3 m/S 741 mmHg 57%
17:00 +31°C° 0 mm 2 m/S 740 mmHg 61%
18:00 +31°C° 0 mm 2 m/S 740 mmHg 64%
19:00 +28°C° 1.2 mm 2 m/S 740 mmHg 72%
20:00 +24°C° 1.2 mm 2 m/S 740 mmHg 81%
21:00 +20°C° 1.2 mm 2 m/S 740 mmHg 89%
22:00 +20°C° 0.1 mm 2 m/S 740 mmHg 89%
23:00 +20°C° 0.1 mm 2 m/S 740 mmHg 89%

27 Juni, Sonntag

Zeit Temperatur Niederschläge Wind Luftdruck Luftfeuchtigkeit
00:00 +19°C° 0.1 mm 2 m/S 740 mmHg 89%
01:00 +19°C° 0 mm 2 m/S 740 mmHg 90%
02:00 +19°C° 0 mm 2 m/S 740 mmHg 90%
03:00 +18°C° 0 mm 2 m/S 740 mmHg 91%
04:00 +19°C° 0 mm 2 m/S 740 mmHg 90%
05:00 +19°C° 0 mm 2 m/S 740 mmHg 90%
06:00 +20°C° 0 mm 2 m/S 740 mmHg 90%
07:00 +21°C° 0 mm 2 m/S 740 mmHg 85%
08:00 +24°C° 0 mm 3 m/S 740 mmHg 80%
09:00 +26°C° 0 mm 4 m/S 740 mmHg 76%
10:00 +27°C° 0 mm 4 m/S 741 mmHg 72%
11:00 +27°C° 0 mm 4 m/S 741 mmHg 68%
12:00 +28°C° 0 mm 4 m/S 741 mmHg 64%
13:00 +29°C° 0.1 mm 4 m/S 741 mmHg 63%
14:00 +29°C° 0.1 mm 4 m/S 741 mmHg 61%
15:00 +29°C° 0.1 mm 4 m/S 741 mmHg 60%
16:00 +29°C° 0.2 mm 4 m/S 741 mmHg 64%
17:00 +28°C° 0.2 mm 3 m/S 741 mmHg 67%
18:00 +28°C° 0.2 mm 3 m/S 741 mmHg 71%
19:00 +26°C° 0 mm 3 m/S 741 mmHg 75%
20:00 +25°C° 0 mm 3 m/S 741 mmHg 79%
21:00 +23°C° 0 mm 2 m/S 741 mmHg 82%
22:00 +21°C° 0 mm 2 m/S 741 mmHg 84%
23:00 +21°C° 0 mm 3 m/S 741 mmHg 85%
Mehr zeigen

Wir brauchen deine Erlaubnis

Meteoprog und unser Service Anbieter werden persönliche Daten aufbewahren, so wie Cookies, Geräte Bezeichnung oder ähnliche Technologien von deinem Gerät und Prozess, so wie Persönliche Daten Inhalte und Werbungen, genauso wie social Media und den Verkehr zu analysieren.

  • Aufbewahrung und/oder Zugang zu deiner Geräte Informationen.

    Cookies, Geräte Bezeichnung oder andere Informationen, können aufbewahrt oder Zugang zu deinem Gerät erhalten, für den Grund, der oben angegeben wird.

  • Personalisierte Werbung und Inhalte, Messungen, Einblick in das Publikum und Produkt Entwicklung.

    Werbungen und Inhalte können personalisiert werden, basierend auf ein Profil. Mehr Daten können besser personalisierte Werbungen und Inhalte hinzufügen. Werbung und Inhalte können gezeigt und gemessen werden. Einblicke über das Publikum, welche die Werbung gesehen haben und den Inhalt, können abgeleitet werden. So wie Daten können genutzt werden, um es zu verbessern oder die Benutzer Erfahrung zu verbessern das System und die Software.

Wenn du “Ich stimme zu” klickst, erlaubst du uns, die Cookies zu benutzen die Geräte Bezeichnung, den Web oder ähnliche Technologien zu benutzen. Deine Settings, können in deinem Gerät bei deinem Browser geändert werden.

Für den bestimmten Zweck, berechtigten Interessen beruhen darauf, mehr als auf den Inhalt. Du kannst mehr darüber in unseren Privaten und Cookie Politik lesen.